﻿測定場所 (Monitoring sites),日付 (Measurement date),時間 (Measurement time),線量率 最大値 (max) μGy/h,線量率 最小値 (min) μGy/h,線量率 平均値 (average) μGy/h,
新宿 (Shinjuku),2011-12-11,23:00～23:59,0.0563,0.0506,0.0532,
新宿 (Shinjuku),2011-12-11,22:00～22:59,0.0553,0.0492,0.0523,
新宿 (Shinjuku),2011-12-11,21:00～21:59,0.0556,0.0493,0.0526,
新宿 (Shinjuku),2011-12-11,20:00～20:59,0.0554,0.0496,0.0524,
新宿 (Shinjuku),2011-12-11,19:00～19:59,0.0555,0.0507,0.0526,
新宿 (Shinjuku),2011-12-11,18:00～18:59,0.0543,0.0494,0.0523,
新宿 (Shinjuku),2011-12-11,17:00～17:59,0.0550,0.0498,0.0523,
新宿 (Shinjuku),2011-12-11,16:00～16:59,0.0552,0.0502,0.0524,
新宿 (Shinjuku),2011-12-11,15:00～15:59,0.0551,0.0501,0.0524,
新宿 (Shinjuku),2011-12-11,14:00～14:59,0.0555,0.0499,0.0524,
新宿 (Shinjuku),2011-12-11,13:00～13:59,0.0548,0.0500,0.0522,
新宿 (Shinjuku),2011-12-11,12:00～12:59,0.0557,0.0506,0.0526,
新宿 (Shinjuku),2011-12-11,11:00～11:59,0.0554,0.0502,0.0528,
新宿 (Shinjuku),2011-12-11,10:00～10:59,0.0558,0.0507,0.0533,
新宿 (Shinjuku),2011-12-11,09:00～09:59,0.0563,0.0519,0.0540,
新宿 (Shinjuku),2011-12-11,08:00～08:59,0.0569,0.0503,0.0538,
新宿 (Shinjuku),2011-12-11,07:00～07:59,0.0573,0.0511,0.0537,
新宿 (Shinjuku),2011-12-11,06:00～06:59,0.0571,0.0509,0.0535,
新宿 (Shinjuku),2011-12-11,05:00～05:59,0.0567,0.0513,0.0540,
新宿 (Shinjuku),2011-12-11,04:00～04:59,0.0573,0.0516,0.0541,
新宿 (Shinjuku),2011-12-11,03:00～03:59,0.0555,0.0509,0.0535,
新宿 (Shinjuku),2011-12-11,02:00～02:59,0.0564,0.0507,0.0533,
新宿 (Shinjuku),2011-12-11,01:00～01:59,0.0551,0.0512,0.0532,
新宿 (Shinjuku),2011-12-11,00:00～00:59,0.0550,0.0508,0.0530,
新宿 (Shinjuku),2011-12-10,23:00～23:59,0.0552,0.0508,0.0528,
新宿 (Shinjuku),2011-12-10,22:00～22:59,0.0562,0.0514,0.0532,
新宿 (Shinjuku),2011-12-10,21:00～21:59,0.0553,0.0503,0.0530,
新宿 (Shinjuku),2011-12-10,20:00～20:59,0.0552,0.0494,0.0527,
新宿 (Shinjuku),2011-12-10,19:00～19:59,0.0548,0.0501,0.0524,
新宿 (Shinjuku),2011-12-10,18:00～18:59,0.0544,0.0499,0.0520,
新宿 (Shinjuku),2011-12-10,17:00～17:59,0.0551,0.0502,0.0523,
新宿 (Shinjuku),2011-12-10,16:00～16:59,0.0558,0.0492,0.0524,
新宿 (Shinjuku),2011-12-10,15:00～15:59,0.0544,0.0501,0.0524,
新宿 (Shinjuku),2011-12-10,14:00～14:59,0.0551,0.0504,0.0522,
新宿 (Shinjuku),2011-12-10,13:00～13:59,0.0548,0.0504,0.0529,
新宿 (Shinjuku),2011-12-10,12:00～12:59,0.0567,0.0507,0.0526,
新宿 (Shinjuku),2011-12-10,11:00～11:59,0.0561,0.0501,0.0526,
新宿 (Shinjuku),2011-12-10,10:00～10:59,0.0551,0.0501,0.0530,
新宿 (Shinjuku),2011-12-10,09:00～09:59,0.0556,0.0506,0.0534,
新宿 (Shinjuku),2011-12-10,08:00～08:59,0.0564,0.0509,0.0537,
新宿 (Shinjuku),2011-12-10,07:00～07:59,0.0554,0.0503,0.0531,
新宿 (Shinjuku),2011-12-10,06:00～06:59,0.0558,0.0509,0.0535,
新宿 (Shinjuku),2011-12-10,05:00～05:59,0.0559,0.0509,0.0532,
新宿 (Shinjuku),2011-12-10,04:00～04:59,0.0553,0.0500,0.0527,
新宿 (Shinjuku),2011-12-10,03:00～03:59,0.0551,0.0505,0.0527,
新宿 (Shinjuku),2011-12-10,02:00～02:59,0.0552,0.0502,0.0526,
新宿 (Shinjuku),2011-12-10,01:00～01:59,0.0552,0.0492,0.0525,
新宿 (Shinjuku),2011-12-10,00:00～00:59,0.0544,0.0493,0.0521,
新宿 (Shinjuku),2011-12-09,23:00～23:59,0.0537,0.0496,0.0520,
新宿 (Shinjuku),2011-12-09,22:00～22:59,0.0552,0.0497,0.0525,
新宿 (Shinjuku),2011-12-09,21:00～21:59,0.0555,0.0495,0.0527,
新宿 (Shinjuku),2011-12-09,20:00～20:59,0.0547,0.0505,0.0523,
新宿 (Shinjuku),2011-12-09,19:00～19:59,0.0547,0.0496,0.0524,
新宿 (Shinjuku),2011-12-09,18:00～18:59,0.0548,0.0496,0.0527,
新宿 (Shinjuku),2011-12-09,17:00～17:59,0.0562,0.0501,0.0528,
新宿 (Shinjuku),2011-12-09,16:00～16:59,0.0548,0.0504,0.0523,
新宿 (Shinjuku),2011-12-09,15:00～15:59,0.0541,0.0492,0.0524,
新宿 (Shinjuku),2011-12-09,14:00～14:59,0.0549,0.0500,0.0524,
新宿 (Shinjuku),2011-12-09,13:00～13:59,0.0572,0.0506,0.0530,
新宿 (Shinjuku),2011-12-09,12:00～12:59,0.0558,0.0505,0.0532,
新宿 (Shinjuku),2011-12-09,11:00～11:59,0.0578,0.0510,0.0543,
新宿 (Shinjuku),2011-12-09,10:00～10:59,0.0614,0.0542,0.0576,
新宿 (Shinjuku),2011-12-09,09:00～09:59,0.0675,0.0584,0.0629,
新宿 (Shinjuku),2011-12-09,08:00～08:59,0.0690,0.0617,0.0654,
新宿 (Shinjuku),2011-12-09,07:00～07:59,0.0673,0.0592,0.0630,
新宿 (Shinjuku),2011-12-09,06:00～06:59,0.0643,0.0584,0.0616,
新宿 (Shinjuku),2011-12-09,05:00～05:59,0.0641,0.0586,0.0609,
新宿 (Shinjuku),2011-12-09,04:00～04:59,0.0639,0.0538,0.0587,
新宿 (Shinjuku),2011-12-09,03:00～03:59,0.0558,0.0505,0.0534,
新宿 (Shinjuku),2011-12-09,02:00～02:59,0.0556,0.0499,0.0532,
新宿 (Shinjuku),2011-12-09,01:00～01:59,0.0573,0.0512,0.0544,
新宿 (Shinjuku),2011-12-09,00:00～00:59,0.0587,0.0535,0.0557,
新宿 (Shinjuku),2011-12-08,23:00～23:59,0.0582,0.0514,0.0544,
新宿 (Shinjuku),2011-12-08,22:00～22:59,0.0569,0.0508,0.0535,
新宿 (Shinjuku),2011-12-08,21:00～21:59,0.0558,0.0500,0.0532,
新宿 (Shinjuku),2011-12-08,20:00～20:59,0.0562,0.0509,0.0530,
新宿 (Shinjuku),2011-12-08,19:00～19:59,0.0566,0.0504,0.0535,
新宿 (Shinjuku),2011-12-08,18:00～18:59,0.0583,0.0532,0.0552,
新宿 (Shinjuku),2011-12-08,17:00～17:59,0.0642,0.0552,0.0600,
新宿 (Shinjuku),2011-12-08,16:00～16:59,0.0649,0.0590,0.0613,
新宿 (Shinjuku),2011-12-08,15:00～15:59,0.0645,0.0583,0.0605,
新宿 (Shinjuku),2011-12-08,14:00～14:59,0.0638,0.0556,0.0596,
新宿 (Shinjuku),2011-12-08,13:00～13:59,0.0575,0.0516,0.0546,
新宿 (Shinjuku),2011-12-08,12:00～12:59,0.0565,0.0513,0.0541,
新宿 (Shinjuku),2011-12-08,11:00～11:59,0.0567,0.0521,0.0542,
新宿 (Shinjuku),2011-12-08,10:00～10:59,0.0575,0.0520,0.0543,
新宿 (Shinjuku),2011-12-08,09:00～09:59,0.0572,0.0516,0.0543,
新宿 (Shinjuku),2011-12-08,08:00～08:59,0.0565,0.0506,0.0542,
新宿 (Shinjuku),2011-12-08,07:00～07:59,0.0565,0.0513,0.0542,
新宿 (Shinjuku),2011-12-08,06:00～06:59,0.0562,0.0511,0.0537,
新宿 (Shinjuku),2011-12-08,05:00～05:59,0.0562,0.0506,0.0539,
新宿 (Shinjuku),2011-12-08,04:00～04:59,0.0560,0.0518,0.0539,
新宿 (Shinjuku),2011-12-08,03:00～03:59,0.0563,0.0511,0.0538,
新宿 (Shinjuku),2011-12-08,02:00～02:59,0.0565,0.0513,0.0535,
新宿 (Shinjuku),2011-12-08,01:00～01:59,0.0558,0.0507,0.0535,
新宿 (Shinjuku),2011-12-08,00:00～00:59,0.0555,0.0512,0.0532,
新宿 (Shinjuku),2011-12-07,23:00～23:59,0.0555,0.0493,0.0530,
新宿 (Shinjuku),2011-12-07,22:00～22:59,0.0551,0.0500,0.0530,
新宿 (Shinjuku),2011-12-07,21:00～21:59,0.0554,0.0509,0.0529,
新宿 (Shinjuku),2011-12-07,20:00～20:59,0.0552,0.0503,0.0527,
新宿 (Shinjuku),2011-12-07,19:00～19:59,0.0557,0.0486,0.0525,
新宿 (Shinjuku),2011-12-07,18:00～18:59,0.0548,0.0499,0.0520,
新宿 (Shinjuku),2011-12-07,17:00～17:59,0.0550,0.0491,0.0522,
新宿 (Shinjuku),2011-12-07,16:00～16:59,0.0549,0.0496,0.0524,
新宿 (Shinjuku),2011-12-07,15:00～15:59,0.0547,0.0492,0.0524,
新宿 (Shinjuku),2011-12-07,14:00～14:59,0.0562,0.0507,0.0530,
新宿 (Shinjuku),2011-12-07,13:00～13:59,0.0566,0.0511,0.0533,
新宿 (Shinjuku),2011-12-07,12:00～12:59,0.0552,0.0504,0.0530,
新宿 (Shinjuku),2011-12-07,11:00～11:59,0.0562,0.0503,0.0532,
新宿 (Shinjuku),2011-12-07,10:00～10:59,0.0565,0.0501,0.0531,
新宿 (Shinjuku),2011-12-07,09:00～09:59,0.0565,0.0512,0.0535,
新宿 (Shinjuku),2011-12-07,08:00～08:59,0.0560,0.0510,0.0535,
新宿 (Shinjuku),2011-12-07,07:00～07:59,0.0561,0.0511,0.0534,
新宿 (Shinjuku),2011-12-07,06:00～06:59,0.0553,0.0501,0.0531,
新宿 (Shinjuku),2011-12-07,05:00～05:59,0.0547,0.0501,0.0525,
新宿 (Shinjuku),2011-12-07,04:00～04:59,0.0556,0.0499,0.0525,
新宿 (Shinjuku),2011-12-07,03:00～03:59,0.0549,0.0505,0.0525,
新宿 (Shinjuku),2011-12-07,02:00～02:59,0.0555,0.0489,0.0523,
新宿 (Shinjuku),2011-12-07,01:00～01:59,0.0546,0.0493,0.0519,
新宿 (Shinjuku),2011-12-07,00:00～00:59,0.0547,0.0485,0.0518,
新宿 (Shinjuku),2011-12-06,23:00～23:59,0.0555,0.0485,0.0519,
新宿 (Shinjuku),2011-12-06,22:00～22:59,0.0534,0.0492,0.0515,
新宿 (Shinjuku),2011-12-06,21:00～21:59,0.0556,0.0499,0.0525,
新宿 (Shinjuku),2011-12-06,20:00～20:59,0.0586,0.0508,0.0542,
新宿 (Shinjuku),2011-12-06,19:00～19:59,0.0631,0.0548,0.0580,
新宿 (Shinjuku),2011-12-06,18:00～18:59,0.0618,0.0561,0.0586,
新宿 (Shinjuku),2011-12-06,17:00～17:59,0.0617,0.0565,0.0588,
新宿 (Shinjuku),2011-12-06,16:00～16:59,0.0626,0.0550,0.0579,
新宿 (Shinjuku),2011-12-06,15:00～15:59,0.0581,0.0514,0.0553,
新宿 (Shinjuku),2011-12-06,14:00～14:59,0.0548,0.0501,0.0525,
新宿 (Shinjuku),2011-12-06,13:00～13:59,0.0548,0.0485,0.0527,
新宿 (Shinjuku),2011-12-06,12:00～12:59,0.0553,0.0509,0.0527,
新宿 (Shinjuku),2011-12-06,11:00～11:59,0.0549,0.0499,0.0523,
新宿 (Shinjuku),2011-12-06,10:00～10:59,0.0558,0.0500,0.0526,
新宿 (Shinjuku),2011-12-06,09:00～09:59,0.0551,0.0497,0.0527,
新宿 (Shinjuku),2011-12-06,08:00～08:59,0.0555,0.0508,0.0524,
新宿 (Shinjuku),2011-12-06,07:00～07:59,0.0551,0.0497,0.0525,
新宿 (Shinjuku),2011-12-06,06:00～06:59,0.0544,0.0497,0.0522,
新宿 (Shinjuku),2011-12-06,05:00～05:59,0.0551,0.0491,0.0522,
新宿 (Shinjuku),2011-12-06,04:00～04:59,0.0554,0.0502,0.0526,
新宿 (Shinjuku),2011-12-06,03:00～03:59,0.0545,0.0499,0.0521,
新宿 (Shinjuku),2011-12-06,02:00～02:59,0.0568,0.0497,0.0523,
新宿 (Shinjuku),2011-12-06,01:00～01:59,0.0552,0.0493,0.0525,
新宿 (Shinjuku),2011-12-06,00:00～00:59,0.0548,0.0503,0.0522,
新宿 (Shinjuku),2011-12-05,23:00～23:59,0.0543,0.0499,0.0523,
新宿 (Shinjuku),2011-12-05,22:00～22:59,0.0548,0.0491,0.0522,
新宿 (Shinjuku),2011-12-05,21:00～21:59,0.0551,0.0499,0.0525,
新宿 (Shinjuku),2011-12-05,20:00～20:59,0.0544,0.0492,0.0522,
新宿 (Shinjuku),2011-12-05,19:00～19:59,0.0547,0.0499,0.0528,
新宿 (Shinjuku),2011-12-05,18:00～18:59,0.0558,0.0507,0.0525,
新宿 (Shinjuku),2011-12-05,17:00～17:59,0.0546,0.0503,0.0524,
新宿 (Shinjuku),2011-12-05,16:00～16:59,0.0550,0.0501,0.0527,
新宿 (Shinjuku),2011-12-05,15:00～15:59,0.0550,0.0508,0.0529,
新宿 (Shinjuku),2011-12-05,14:00～14:59,0.0558,0.0498,0.0528,
新宿 (Shinjuku),2011-12-05,13:00～13:59,0.0563,0.0503,0.0528,
新宿 (Shinjuku),2011-12-05,12:00～12:59,0.0557,0.0503,0.0530,
新宿 (Shinjuku),2011-12-05,11:00～11:59,0.0562,0.0503,0.0532,
新宿 (Shinjuku),2011-12-05,10:00～10:59,0.0560,0.0506,0.0532,
新宿 (Shinjuku),2011-12-05,09:00～09:59,0.0562,0.0506,0.0534,
新宿 (Shinjuku),2011-12-05,08:00～08:59,0.0554,0.0512,0.0533,
新宿 (Shinjuku),2011-12-05,07:00～07:59,0.0559,0.0503,0.0528,
新宿 (Shinjuku),2011-12-05,06:00～06:59,0.0558,0.0505,0.0528,
新宿 (Shinjuku),2011-12-05,05:00～05:59,0.0555,0.0502,0.0531,
新宿 (Shinjuku),2011-12-05,04:00～04:59,0.0566,0.0507,0.0534,
新宿 (Shinjuku),2011-12-05,03:00～03:59,0.0556,0.0505,0.0532,
新宿 (Shinjuku),2011-12-05,02:00～02:59,0.0548,0.0508,0.0529,
新宿 (Shinjuku),2011-12-05,01:00～01:59,0.0550,0.0493,0.0526,
新宿 (Shinjuku),2011-12-05,00:00～00:59,0.0555,0.0505,0.0529,
